Location: Winthrop
(48.4780°N, 120.1850°W)
Time: 01:41:26
(UTC-08:00)

Transit 2A Rocket - All Passes

Search period start: 28 January 2023 00:00
Search period end: 07 February 2023 00:00
Orbit: 585 x 914 km, 66.7° (Epoch: 27 January)

Date Brightness Start Highest point End Pass type
(mag) Time Alt. Az. Time Alt. Az. Time Alt. Az.
28 Jan - 01:38:45 10° SW 01:43:42 75° NW 01:49:14 10° NNE visible
28 Jan - 03:23:20 10° WNW 03:27:18 21° NNW 03:31:32 10° NNE visible
28 Jan - 05:09:54 10° NNW 05:12:09 12° N 05:14:27 10° NNE visible
28 Jan - 06:53:27 10° NNW 06:57:12 17° NNE 07:01:04 10° ENE visible
28 Jan - 08:35:36 10° NNW 08:41:17 46° NE 08:47:07 10° ESE daylight
28 Jan - 10:18:18 10° NW 10:23:57 44° WSW 10:29:41 10° S daylight
28 Jan - 23:18:19 10° ESE 23:19:17 10° E 23:20:16 10° E night (unlit)
29 Jan - 00:55:46 10° SSW 01:00:40 70° ESE 01:06:07 10° NE night (unlit)
29 Jan - 02:39:22 10° W 02:43:48 28° NW 02:48:35 10° NNE visible
29 Jan - 04:25:47 10° NW 04:28:23 13° N 04:31:03 10° NNE visible
29 Jan - 06:10:25 10° NNW 06:13:31 14° NNE 06:16:42 10° NE visible
29 Jan - 07:52:38 10° NNW 07:57:56 33° NE 08:03:23 10° ESE daylight
29 Jan - 09:35:03 10° NW 09:41:00 68° WSW 09:47:04 10° SSE daylight
29 Jan - 11:19:57 10° WNW 11:22:37 13° WSW 11:25:19 10° SW daylight
30 Jan - 00:13:08 10° S 00:17:46 42° ESE 00:22:51 10° NE night (unlit)
30 Jan - 01:55:38 10° WSW 02:00:24 39° NW 02:05:38 10° NNE visible
30 Jan - 03:41:31 10° NW 03:44:38 15° NNW 03:47:55 10° NNE visible
30 Jan - 05:27:12 10° NNW 05:29:45 13° N 05:32:21 10° NE visible
30 Jan - 07:09:42 10° NNW 07:14:29 25° NNE 07:19:24 10° E daylight
30 Jan - 08:51:57 10° NW 08:57:57 82° NE 09:04:05 10° SE daylight
30 Jan - 10:35:32 10° WNW 10:39:59 22° WSW 10:44:28 10° SSW daylight
30 Jan - 23:30:58 10° SSE 23:34:59 26° ESE 23:39:20 10° NE night (unlit)
31 Jan - 01:12:10 10° SW 01:17:08 58° NW 01:22:38 10° NNE visible
31 Jan - 02:57:16 10° WNW 03:00:59 19° NNW 03:04:54 10° NNE visible
31 Jan - 04:43:40 10° NNW 04:45:58 12° N 04:48:18 10° NNE visible
31 Jan - 06:26:45 10° NNW 06:30:55 20° NNE 06:35:13 10° ENE visible
31 Jan - 08:08:55 10° NNW 08:14:47 56° NE 08:20:48 10° SE daylight
31 Jan - 09:51:52 10° NW 09:57:13 34° WSW 10:02:37 10° S daylight
31 Jan - 22:49:31 10° SE 22:52:21 15° ESE 22:55:18 10° ENE night (unlit)
01 Feb - 00:29:00 10° SW 00:34:00 89° NW 00:39:33 10° NE night (unlit)
01 Feb - 02:13:11 10° W 02:17:24 24° NNW 02:21:56 10° NNE visible
01 Feb - 03:59:44 10° NNW 04:02:10 13° N 04:04:39 10° NNE visible
01 Feb - 05:43:45 10° NNW 05:47:16 16° NNE 05:50:53 10° ENE visible
01 Feb - 07:25:56 10° NNW 07:31:30 40° NE 07:37:13 10° ESE daylight
01 Feb - 09:08:31 10° NW 09:14:21 53° WSW 09:20:14 10° SSE daylight
01 Feb - 23:46:09 10° SSW 23:51:00 57° ESE 23:56:23 10° NE night (unlit)
02 Feb - 01:29:19 10° WSW 01:33:57 32° NW 01:38:58 10° NNE visible
02 Feb - 03:15:32 10° NW 03:18:24 14° NNW 03:21:22 10° NNE visible
02 Feb - 05:00:38 10° NNW 05:03:32 14° NNE 05:06:31 10° NE visible
02 Feb - 06:42:59 10° NNW 06:48:06 29° NE 06:53:22 10° E visible
02 Feb - 08:25:20 10° NW 08:31:21 80° WSW 08:37:27 10° SSE daylight
02 Feb - 10:09:32 10° WNW 10:13:07 16° WSW 10:16:44 10° SW daylight
02 Feb - 23:03:41 10° S 23:08:09 34° ESE 23:13:02 10° NE night (unlit)
03 Feb - 00:45:41 10° WSW 00:50:35 46° NW 00:56:00 10° NNE night (unlit)
03 Feb - 02:31:16 10° WNW 02:34:41 17° NNW 02:38:16 10° NNE visible
03 Feb - 04:17:18 10° NNW 04:19:46 13° N 04:22:17 10° NNE visible
03 Feb - 06:00:02 10° NNW 06:04:36 23° NNE 06:09:18 10° E visible
03 Feb - 07:42:15 10° NNW 07:48:15 71° NE 07:54:21 10° SE daylight
03 Feb - 09:25:32 10° NW 09:30:25 26° WSW 09:35:21 10° SSW daylight
03 Feb - 22:21:44 10° SSE 22:25:25 21° ESE 22:29:22 10° ENE night (unlit)
04 Feb - 00:02:20 10° SW 00:07:22 69° NW 00:12:57 10° NNE night (unlit)
04 Feb - 01:47:05 10° WNW 01:51:03 21° NNW 01:55:16 10° NNE visible
04 Feb - 03:33:35 10° NNW 03:35:57 12° N 03:38:22 10° NNE visible
04 Feb - 05:17:03 10° NNW 05:21:00 18° NNE 05:25:02 10° ENE visible
04 Feb - 06:59:13 10° NNW 07:05:01 49° NE 07:10:56 10° ESE daylight
04 Feb - 08:42:01 10° NW 08:47:37 41° WSW 08:53:15 10° S daylight
04 Feb - 21:40:53 10° SE 21:42:49 12° E 21:44:50 10° ENE night (unlit)
04 Feb - 23:19:17 10° SSW 23:24:17 76° ESE 23:29:51 10° NE night (unlit)
05 Feb - 01:03:04 10° W 01:07:31 27° NW 01:12:18 10° NNE visible
05 Feb - 02:49:31 10° NW 02:52:10 13° N 02:54:53 10° NNE visible
05 Feb - 04:34:00 10° NNW 04:37:18 15° NNE 04:40:41 10° NE visible
05 Feb - 06:16:16 10° NNW 06:21:41 35° NE 06:27:14 10° ESE visible
05 Feb - 07:58:44 10° NW 08:04:41 63° WSW 08:10:42 10° SSE daylight
05 Feb - 09:44:05 10° W 09:46:13 12° W 09:48:20 10° WSW daylight
05 Feb - 22:36:34 10° S 22:41:20 47° ESE 22:46:36 10° NE night (unlit)
06 Feb - 00:19:17 10° WSW 00:24:05 37° NW 00:29:19 10° NNE night (unlit)
06 Feb - 02:05:16 10° NW 02:08:24 15° NNW 02:11:40 10° NNE visible
06 Feb - 03:50:48 10° NNW 03:53:32 13° N 03:56:21 10° NE visible
06 Feb - 05:33:17 10° NNW 05:38:14 26° NE 05:43:18 10° E visible
06 Feb - 07:15:36 10° NW 07:21:39 88° NE 07:27:46 10° SE daylight
06 Feb - 08:59:21 10° WNW 09:03:35 20° WSW 09:07:50 10° SSW daylight
06 Feb - 21:54:17 10° SSE 21:58:32 28° ESE 22:03:09 10° NE night (unlit)
06 Feb - 23:35:46 10° SW 23:40:47 54° NW 23:46:19 10° NNE night (unlit)
